Retour au catalogue

STARLINK-35339

ActifCommunicationsVLEO
NORAD 66028·PAYLOAD·🇺🇸 United States

Lancé Oct 16, 2025 depuis Cape Canaveral Space Force Station

Loading…

Prochains Passages (prochaines 24 heures)

TLE

FraisSource: CelesTrak SupGP

Époque: Sep 14, 2026, 22:54 UTC

1 66028C 25232Z   26257.95465278  .00047549  00000+0  14055-2 0  2576
2 66028  53.1577 301.7741 0001082  85.9317 334.2832 15.34353371    10

Suivez STARLINK-35339 en temps réel avec AllMySat

Download on the App Store